DHK524 EGNX-LIMC

Flight info

Callsign DHK524
Flight time 1h 38m
Altitude 35000
Route SAPCO UY53 DTY DCT SILVA UM605 BENSU Q70 BIG UL9 KONAN DCT KOK DCT CIV DCT SUTAL DCT GTQ DCT OBORN DCT DEVDI DCT BASGO/N0493F290 Z424 AKASU/N0422F190 Z424 RIXUV
Aircraft B77L/H-SDE1E2E3FGHIJ2J3J4J5M1RWXY/LB1D1

Departure

Time 2026-05-06 06:29
Airport East Midlands Airport (EGNX)

Arrival

Time 2026-05-06 08:07
Airport Milan Malpensa International Airport (LIMC)
Time Latitude Longitude Altitude Speed Heading
2026-05-06 05:31 52.82742 -1.35339 309 ft 0 kts 179°
2026-05-06 06:14 52.82743 -1.35339 309 ft 0 kts 179°
2026-05-06 06:16 52.82742 -1.35339 309 ft 0 kts 179°
2026-05-06 06:17 52.82750 -1.35339 309 ft 2 kts 179°
2026-05-06 06:17 52.82763 -1.35340 310 ft 0 kts 179°
2026-05-06 06:17 52.82775 -1.35341 310 ft 2 kts 168°
2026-05-06 06:17 52.82789 -1.35349 311 ft 2 kts 149°
2026-05-06 06:18 52.82800 -1.35364 311 ft 2 kts 133°
2026-05-06 06:18 52.82809 -1.35384 312 ft 2 kts 116°
2026-05-06 06:18 52.82814 -1.35407 312 ft 2 kts 100°
2026-05-06 06:18 52.82815 -1.35422 312 ft 1 kts 90°
2026-05-06 06:19 52.82815 -1.35425 312 ft 0 kts 89°
2026-05-06 06:21 52.82815 -1.35424 312 ft 0 kts 89°
2026-05-06 06:21 52.82816 -1.35401 312 ft 2 kts 89°
2026-05-06 06:21 52.82816 -1.35365 312 ft 4 kts 89°
2026-05-06 06:22 52.82816 -1.35330 312 ft 0 kts 86°
2026-05-06 06:24 52.82817 -1.35319 312 ft 3 kts 86°
2026-05-06 06:24 52.82820 -1.35290 312 ft 2 kts 64°
2026-05-06 06:25 52.82836 -1.35271 313 ft 3 kts 23°
2026-05-06 06:25 52.82869 -1.35247 313 ft 6 kts 30°
2026-05-06 06:25 52.82893 -1.35118 314 ft 5 kts 85°
2026-05-06 06:26 52.82897 -1.35050 314 ft 5 kts 85°
2026-05-06 06:26 52.82901 -1.34984 314 ft 5 kts 83°
2026-05-06 06:26 52.82910 -1.34949 315 ft 2 kts 43°
2026-05-06 06:26 52.82925 -1.34939 316 ft 3 kts 13°
2026-05-06 06:27 52.82964 -1.34929 317 ft 5 kts
2026-05-06 06:27 52.82999 -1.34927 318 ft 4 kts
2026-05-06 06:27 52.83031 -1.34926 318 ft 4 kts
2026-05-06 06:27 52.83049 -1.34917 319 ft 1 kts 38°
2026-05-06 06:28 52.83057 -1.34899 319 ft 3 kts 64°
2026-05-06 06:28 52.83063 -1.34804 319 ft 17 kts 88°
2026-05-06 06:28 52.83075 -1.34107 316 ft 106 kts 88°
2026-05-06 06:28 52.83105 -1.32451 415 ft 175 kts 85°
2026-05-06 06:29 52.83121 -1.30425 1367 ft 182 kts 90°
2026-05-06 06:29 52.82968 -1.28490 2432 ft 176 kts 91°
2026-05-06 06:29 52.82875 -1.26400 3012 ft 193 kts 89°
2026-05-06 06:29 52.82727 -1.24115 3685 ft 211 kts 101°
2026-05-06 06:30 52.82033 -1.21841 4320 ft 236 kts 126°
2026-05-06 06:30 52.80812 -1.19821 5001 ft 257 kts 134°
2026-05-06 06:30 52.79501 -1.17711 5706 ft 275 kts 133°
2026-05-06 06:30 52.77927 -1.15869 6593 ft 287 kts 158°
2026-05-06 06:31 52.75959 -1.15333 7562 ft 291 kts 187°
2026-05-06 06:31 52.74015 -1.16054 8597 ft 291 kts 193°
2026-05-06 06:31 52.72000 -1.16269 9568 ft 295 kts 179°
2026-05-06 06:31 52.69955 -1.16108 10489 ft 300 kts 178°
2026-05-06 06:32 52.67828 -1.15915 11099 ft 317 kts 178°
2026-05-06 06:32 52.65583 -1.15710 11714 ft 333 kts 178°
2026-05-06 06:32 52.63219 -1.15494 12336 ft 349 kts 178°
2026-05-06 06:32 52.60745 -1.15267 12961 ft 365 kts 178°
2026-05-06 06:33 52.58176 -1.15032 13593 ft 380 kts 178°
2026-05-06 06:33 52.55485 -1.14786 14228 ft 395 kts 178°
2026-05-06 06:33 52.52735 -1.14535 14938 ft 406 kts 178°
2026-05-06 06:33 52.49908 -1.14277 15856 ft 412 kts 178°
2026-05-06 06:34 52.47031 -1.14013 16838 ft 416 kts 178°
2026-05-06 06:34 52.44154 -1.13750 17783 ft 420 kts 178°
2026-05-06 06:34 52.41255 -1.13486 18658 ft 425 kts 178°
2026-05-06 06:34 52.38292 -1.13217 19545 ft 429 kts 178°
2026-05-06 06:35 52.35290 -1.12944 20404 ft 434 kts 178°
2026-05-06 06:35 52.32268 -1.12669 21237 ft 438 kts 178°
2026-05-06 06:35 52.29247 -1.12395 22030 ft 443 kts 178°
2026-05-06 06:35 52.26183 -1.11994 22790 ft 449 kts 173°
2026-05-06 06:36 52.23113 -1.10830 23514 ft 456 kts 163°
2026-05-06 06:36 52.20180 -1.08819 24233 ft 462 kts 153°
2026-05-06 06:36 52.17471 -1.05995 24953 ft 467 kts 144°
2026-05-06 06:36 52.14952 -1.02723 25633 ft 471 kts 142°
2026-05-06 06:37 52.12420 -0.99365 26308 ft 476 kts 141°
2026-05-06 06:37 52.09828 -0.95929 26981 ft 480 kts 142°
2026-05-06 06:37 52.07261 -0.92530 27641 ft 485 kts 142°
2026-05-06 06:37 52.04629 -0.89051 28327 ft 489 kts 142°
2026-05-06 06:38 52.01984 -0.85561 28998 ft 493 kts 142°
2026-05-06 06:38 51.99351 -0.82091 29703 ft 496 kts 142°
2026-05-06 06:38 51.96675 -0.78570 30647 ft 494 kts 142°
2026-05-06 06:38 51.94027 -0.75091 31690 ft 488 kts 142°
2026-05-06 06:39 51.91427 -0.71680 32565 ft 485 kts 142°
2026-05-06 06:39 51.88821 -0.68267 33242 ft 485 kts 141°
2026-05-06 06:39 51.86180 -0.64814 33822 ft 486 kts 141°
2026-05-06 06:39 51.83561 -0.61394 34411 ft 486 kts 141°
2026-05-06 06:40 51.80968 -0.58015 35009 ft 486 kts 141°
2026-05-06 06:40 51.78326 -0.54576 35420 ft 484 kts 141°
2026-05-06 06:40 51.75737 -0.51213 35770 ft 484 kts 141°
2026-05-06 06:40 51.73113 -0.47808 36101 ft 483 kts 141°
2026-05-06 06:41 51.70513 -0.44439 36456 ft 483 kts 141°
2026-05-06 06:41 51.67885 -0.41039 36869 ft 484 kts 141°
2026-05-06 06:41 51.65270 -0.37663 36964 ft 487 kts 141°
2026-05-06 06:42 51.60014 -0.30889 36973 ft 482 kts 142°
2026-05-06 06:42 51.54802 -0.24194 36966 ft 483 kts 142°
2026-05-06 06:42 51.52196 -0.20855 37191 ft 484 kts 142°
2026-05-06 06:43 51.49560 -0.17481 37013 ft 482 kts 142°
2026-05-06 06:43 51.44371 -0.10856 36969 ft 480 kts 142°
2026-05-06 06:44 51.39144 -0.04188 36640 ft 479 kts 140°
2026-05-06 06:44 51.36768 -0.00521 37115 ft 483 kts 132°
2026-05-06 06:44 51.34685 0.03746 36985 ft 484 kts 123°
2026-05-06 06:45 51.31882 0.13344 36960 ft 481 kts 106°
2026-05-06 06:45 51.30518 0.23747 36958 ft 482 kts 100°
2026-05-06 06:46 51.29271 0.34244 36957 ft 482 kts 101°
2026-05-06 06:46 51.28001 0.44684 36956 ft 481 kts 101°
2026-05-06 06:47 51.26704 0.55175 36948 ft 481 kts 101°
2026-05-06 06:47 51.25399 0.65562 36938 ft 480 kts 102°
2026-05-06 06:48 51.24072 0.75991 36935 ft 481 kts 102°
2026-05-06 06:48 51.22742 0.86389 36932 ft 480 kts 102°
2026-05-06 06:49 51.21407 0.96738 36936 ft 480 kts 102°
2026-05-06 06:49 51.20058 1.07119 36927 ft 479 kts 102°
2026-05-06 06:50 51.18698 1.17501 36924 ft 480 kts 102°
2026-05-06 06:50 51.17329 1.27876 36920 ft 479 kts 102°
2026-05-06 06:51 51.16148 1.38282 36914 ft 479 kts 95°
2026-05-06 06:51 51.15635 1.48797 36909 ft 480 kts 94°
2026-05-06 06:52 51.15129 1.59386 36907 ft 479 kts 94°
2026-05-06 06:52 51.14614 1.69880 36903 ft 479 kts 95°
2026-05-06 06:53 51.14087 1.80392 36894 ft 479 kts 95°
2026-05-06 06:53 51.13549 1.90916 36895 ft 479 kts 95°
2026-05-06 06:54 51.13003 2.01402 36894 ft 478 kts 95°
2026-05-06 06:54 51.12442 2.11974 36897 ft 478 kts 95°
2026-05-06 06:55 51.11878 2.22430 36895 ft 478 kts 95°
2026-05-06 06:55 51.11300 2.32960 36897 ft 478 kts 95°
2026-05-06 06:56 51.10716 2.43433 36899 ft 476 kts 95°
2026-05-06 06:56 51.10124 2.53869 36894 ft 477 kts 95°
2026-05-06 06:57 51.08872 2.64152 36901 ft 476 kts 110°
2026-05-06 06:57 51.05853 2.73420 36900 ft 475 kts 124°
2026-05-06 06:58 51.02148 2.82054 36892 ft 475 kts 125°
2026-05-06 06:58 50.98418 2.90661 36890 ft 474 kts 125°
2026-05-06 06:59 50.94665 2.99281 36884 ft 474 kts 125°
2026-05-06 06:59 50.90924 3.07838 36869 ft 474 kts 125°
2026-05-06 07:00 50.87174 3.16387 36866 ft 474 kts 125°
2026-05-06 07:00 50.83438 3.24873 36858 ft 475 kts 125°
2026-05-06 07:01 50.79663 3.33418 36852 ft 476 kts 125°
2026-05-06 07:01 50.75869 3.41980 36857 ft 475 kts 125°
2026-05-06 07:02 50.72092 3.50474 36849 ft 475 kts 125°
2026-05-06 07:02 50.68302 3.58970 36848 ft 475 kts 125°
2026-05-06 07:03 50.64516 3.67427 36836 ft 475 kts 126°
2026-05-06 07:03 50.60711 3.75903 36850 ft 475 kts 126°
2026-05-06 07:04 50.56915 3.84335 36841 ft 475 kts 126°
2026-05-06 07:04 50.53314 3.93018 36834 ft 476 kts 123°
2026-05-06 07:05 50.49739 4.01711 36832 ft 476 kts 124°
2026-05-06 07:05 50.46133 4.10421 36825 ft 476 kts 124°
2026-05-06 07:06 50.42526 4.19088 36822 ft 476 kts 124°
2026-05-06 07:06 50.38905 4.27752 36831 ft 476 kts 124°
2026-05-06 07:07 50.35292 4.36366 36825 ft 476 kts 124°
2026-05-06 07:07 50.31685 4.44932 36815 ft 476 kts 124°
2026-05-06 07:08 50.28039 4.53564 36815 ft 475 kts 124°
2026-05-06 07:08 50.24404 4.62139 36809 ft 476 kts 124°
2026-05-06 07:09 50.20757 4.70716 36802 ft 476 kts 125°
2026-05-06 07:09 50.17111 4.79262 36798 ft 475 kts 125°
2026-05-06 07:10 50.13465 4.87780 36794 ft 475 kts 125°
2026-05-06 07:10 50.09796 4.96324 36785 ft 474 kts 125°
2026-05-06 07:11 50.06144 5.04802 36772 ft 474 kts 125°
2026-05-06 07:11 50.02476 5.13288 36784 ft 475 kts 125°
2026-05-06 07:12 49.98790 5.21789 36785 ft 475 kts 125°
2026-05-06 07:12 49.95096 5.30280 36782 ft 475 kts 125°
2026-05-06 07:13 49.91416 5.38714 36772 ft 476 kts 126°
2026-05-06 07:13 49.87700 5.47201 36782 ft 475 kts 125°
2026-05-06 07:14 49.83986 5.55659 36779 ft 476 kts 126°
2026-05-06 07:14 49.80275 5.64082 36768 ft 476 kts 126°
2026-05-06 07:15 49.76544 5.72523 36775 ft 476 kts 126°
2026-05-06 07:15 49.72832 5.80893 36780 ft 476 kts 127°
2026-05-06 07:16 49.69079 5.89332 36773 ft 476 kts 127°
2026-05-06 07:16 49.65338 5.97715 36780 ft 476 kts 127°
2026-05-06 07:17 49.61606 6.06053 36779 ft 476 kts 127°
2026-05-06 07:17 49.57836 6.14448 36780 ft 476 kts 127°
2026-05-06 07:18 49.54063 6.22824 36776 ft 478 kts 127°
2026-05-06 07:18 49.50284 6.31180 36780 ft 477 kts 128°
2026-05-06 07:19 49.45757 6.38389 36777 ft 471 kts 145°
2026-05-06 07:19 49.40109 6.43358 36788 ft 467 kts 156°
2026-05-06 07:20 49.34246 6.47481 36782 ft 467 kts 157°
2026-05-06 07:20 49.28303 6.51584 36785 ft 466 kts 158°
2026-05-06 07:21 49.22417 6.55602 36790 ft 466 kts 158°
2026-05-06 07:21 49.16517 6.59603 36784 ft 466 kts 158°
2026-05-06 07:22 49.10587 6.63605 36784 ft 465 kts 158°
2026-05-06 07:22 49.04669 6.67583 36791 ft 465 kts 159°
2026-05-06 07:23 48.98784 6.71601 36787 ft 466 kts 154°
2026-05-06 07:23 48.93229 6.76661 36797 ft 469 kts 151°
2026-05-06 07:24 48.87697 6.81838 36799 ft 468 kts 151°
2026-05-06 07:24 48.82151 6.87010 36800 ft 468 kts 151°
2026-05-06 07:25 48.76643 6.92129 36799 ft 468 kts 151°
2026-05-06 07:25 48.71091 6.97273 36798 ft 467 kts 152°
2026-05-06 07:26 48.65554 7.02388 36803 ft 469 kts 151°
2026-05-06 07:26 48.60046 7.07464 36803 ft 467 kts 152°
2026-05-06 07:27 48.54488 7.12571 36802 ft 467 kts 152°
2026-05-06 07:27 48.48949 7.17648 36805 ft 467 kts 151°
2026-05-06 07:28 48.43120 7.21643 36811 ft 461 kts 164°
2026-05-06 07:28 48.33986 7.26084 36808 ft 462 kts 165°
2026-05-06 07:29 48.27894 7.29025 36806 ft 461 kts 165°
2026-05-06 07:29 48.21804 7.31958 36805 ft 460 kts 165°
2026-05-06 07:30 48.15738 7.34872 36808 ft 459 kts 165°
2026-05-06 07:30 48.09666 7.37781 36805 ft 459 kts 165°
2026-05-06 07:31 48.03595 7.40683 36812 ft 461 kts 165°
2026-05-06 07:31 47.97517 7.43581 36803 ft 460 kts 165°
2026-05-06 07:32 47.91426 7.46478 36806 ft 460 kts 165°
2026-05-06 07:32 47.85372 7.49350 36810 ft 458 kts 165°
2026-05-06 07:33 47.79292 7.52228 36814 ft 459 kts 165°
2026-05-06 07:33 47.73228 7.55215 36817 ft 459 kts 161°
2026-05-06 07:34 47.67411 7.58959 36821 ft 462 kts 159°
2026-05-06 07:34 47.61527 7.62781 36815 ft 459 kts 160°
2026-05-06 07:35 47.55696 7.66551 36814 ft 462 kts 160°
2026-05-06 07:35 47.49805 7.70350 36819 ft 458 kts 160°
2026-05-06 07:36 47.43999 7.74083 36822 ft 460 kts 160°
2026-05-06 07:36 47.38133 7.77844 36820 ft 458 kts 160°
2026-05-06 07:37 47.32308 7.81570 36822 ft 459 kts 161°
2026-05-06 07:37 47.26441 7.85313 36624 ft 459 kts 161°
2026-05-06 07:38 47.23534 7.87164 36810 ft 460 kts 160°
2026-05-06 07:38 47.20610 7.89023 36820 ft 462 kts 161°
2026-05-06 07:38 47.14735 7.92755 36818 ft 459 kts 161°
2026-05-06 07:39 47.08845 7.96484 36820 ft 462 kts 161°
2026-05-06 07:39 47.03004 8.00176 36825 ft 459 kts 161°
2026-05-06 07:40 46.97150 8.03866 36799 ft 459 kts 161°
2026-05-06 07:40 46.91277 8.07559 36820 ft 460 kts 161°
2026-05-06 07:41 46.88375 8.09382 36637 ft 454 kts 161°
2026-05-06 07:41 46.85480 8.11197 35972 ft 457 kts 161°
2026-05-06 07:41 46.82553 8.13029 35318 ft 462 kts 162°
2026-05-06 07:41 46.79604 8.14871 34597 ft 467 kts 163°
2026-05-06 07:42 46.76599 8.16747 33743 ft 471 kts 163°
2026-05-06 07:42 46.73603 8.18617 32885 ft 472 kts 162°
2026-05-06 07:42 46.70584 8.20498 31993 ft 472 kts 162°
2026-05-06 07:42 46.67614 8.22348 31170 ft 471 kts 162°
2026-05-06 07:43 46.64587 8.24231 30396 ft 468 kts 162°
2026-05-06 07:43 46.61635 8.26067 29899 ft 460 kts 162°
2026-05-06 07:43 46.58721 8.27877 29413 ft 453 kts 161°
2026-05-06 07:43 46.55855 8.29654 28892 ft 447 kts 161°
2026-05-06 07:44 46.53045 8.31393 28364 ft 441 kts 161°
2026-05-06 07:44 46.50207 8.33147 27853 ft 435 kts 161°
2026-05-06 07:44 46.47478 8.34833 27346 ft 429 kts 161°
2026-05-06 07:44 46.44739 8.36522 26912 ft 423 kts 161°
2026-05-06 07:45 46.42068 8.38166 26833 ft 425 kts 161°
2026-05-06 07:45 46.39291 8.39870 26827 ft 428 kts 161°
2026-05-06 07:45 46.36625 8.41512 26485 ft 419 kts 161°
2026-05-06 07:45 46.33939 8.43161 25643 ft 421 kts 161°
2026-05-06 07:46 46.31251 8.44807 24794 ft 423 kts 160°
2026-05-06 07:46 46.28540 8.46387 24151 ft 418 kts 164°
2026-05-06 07:46 46.25734 8.47352 23516 ft 411 kts 173°
2026-05-06 07:46 46.22911 8.47824 22855 ft 408 kts 176°
2026-05-06 07:47 46.20109 8.48235 22011 ft 409 kts 175°
2026-05-06 07:47 46.17284 8.48645 21348 ft 406 kts 175°
2026-05-06 07:47 46.14502 8.49046 20792 ft 401 kts 175°
2026-05-06 07:47 46.11766 8.49514 20242 ft 396 kts 171°
2026-05-06 07:48 46.09092 8.50591 19693 ft 393 kts 162°
2026-05-06 07:48 46.06524 8.51955 19121 ft 389 kts 161°
2026-05-06 07:48 46.03986 8.53324 18551 ft 385 kts 161°
2026-05-06 07:48 46.01505 8.54660 18042 ft 380 kts 161°
2026-05-06 07:49 45.99034 8.55989 17485 ft 376 kts 160°
2026-05-06 07:49 45.96599 8.57299 16969 ft 373 kts 161°
2026-05-06 07:49 45.94197 8.58589 16418 ft 370 kts 160°
2026-05-06 07:49 45.91781 8.59885 15883 ft 366 kts 160°
2026-05-06 07:50 45.89501 8.61468 15323 ft 366 kts 149°
2026-05-06 07:50 45.87462 8.63646 14809 ft 364 kts 143°
2026-05-06 07:50 45.85507 8.65902 14298 ft 361 kts 143°
2026-05-06 07:50 45.83570 8.68146 13773 ft 359 kts 143°
2026-05-06 07:51 45.81650 8.70372 13252 ft 356 kts 143°
2026-05-06 07:51 45.79726 8.72598 12728 ft 354 kts 143°
2026-05-06 07:51 45.77802 8.74824 12202 ft 351 kts 143°
2026-05-06 07:51 45.75838 8.76824 11868 ft 340 kts 152°
2026-05-06 07:52 45.73838 8.78418 11811 ft 324 kts 154°
2026-05-06 07:52 45.71880 8.79925 11709 ft 311 kts 154°
2026-05-06 07:52 45.70020 8.81352 11590 ft 300 kts 154°
2026-05-06 07:52 45.68216 8.82736 11460 ft 289 kts 154°
2026-05-06 07:53 45.66469 8.84077 11331 ft 279 kts 154°
2026-05-06 07:53 45.64787 8.85368 11203 ft 269 kts 154°
2026-05-06 07:53 45.63191 8.86593 11083 ft 259 kts 154°
2026-05-06 07:53 45.61581 8.87651 10962 ft 246 kts 167°
2026-05-06 07:54 45.59925 8.88191 10729 ft 249 kts 170°
2026-05-06 07:54 45.58234 8.88657 10390 ft 249 kts 171°
2026-05-06 07:54 45.56533 8.89118 10071 ft 248 kts 170°
2026-05-06 07:54 45.54837 8.89578 9771 ft 246 kts 170°
2026-05-06 07:55 45.53182 8.90028 9478 ft 243 kts 171°
2026-05-06 07:55 45.51531 8.90476 9198 ft 241 kts 170°
2026-05-06 07:55 45.49875 8.90926 8904 ft 241 kts 170°
2026-05-06 07:55 45.48217 8.91377 8473 ft 245 kts 169°
2026-05-06 07:56 45.46540 8.91833 8003 ft 251 kts 169°
2026-05-06 07:56 45.44817 8.92302 7539 ft 256 kts 169°
2026-05-06 07:56 45.43062 8.92779 7077 ft 260 kts 168°
2026-05-06 07:56 45.41269 8.93266 6612 ft 264 kts 169°
2026-05-06 07:57 45.39442 8.93761 6126 ft 268 kts 168°
2026-05-06 07:57 45.37622 8.94255 5748 ft 267 kts 169°
2026-05-06 07:57 45.35842 8.94736 5739 ft 253 kts 168°
2026-05-06 07:57 45.34158 8.95192 5728 ft 239 kts 168°
2026-05-06 07:58 45.32560 8.95624 5704 ft 229 kts 168°
2026-05-06 07:58 45.31000 8.96031 5688 ft 226 kts 173°
2026-05-06 07:58 45.29406 8.95770 5670 ft 242 kts 200°
2026-05-06 07:58 45.28007 8.94351 5654 ft 251 kts 229°
2026-05-06 07:59 45.27316 8.92168 5627 ft 244 kts 259°
2026-05-06 07:59 45.27486 8.89829 5592 ft 237 kts 290°
2026-05-06 07:59 45.28410 8.87968 5548 ft 225 kts 319°
2026-05-06 07:59 45.29649 8.86739 5494 ft 213 kts 326°
2026-05-06 08:00 45.30870 8.85611 5390 ft 207 kts 326°
2026-05-06 08:00 45.32100 8.84474 5395 ft 210 kts 326°
2026-05-06 08:00 45.33316 8.83316 5396 ft 209 kts 320°
2026-05-06 08:00 45.34464 8.82055 5364 ft 211 kts 327°
2026-05-06 08:01 45.35789 8.81142 5283 ft 210 kts 340°
2026-05-06 08:01 45.37184 8.80532 5200 ft 209 kts 346°
2026-05-06 08:01 45.38605 8.80062 4963 ft 213 kts 349°
2026-05-06 08:01 45.40056 8.79642 4644 ft 213 kts 350°
2026-05-06 08:02 45.41507 8.79240 4359 ft 210 kts 350°
2026-05-06 08:02 45.42904 8.78857 4272 ft 201 kts 350°
2026-05-06 08:02 45.44287 8.78481 4118 ft 204 kts 351°
2026-05-06 08:02 45.45669 8.78107 3859 ft 201 kts 351°
2026-05-06 08:03 45.47009 8.77742 3607 ft 197 kts 351°
2026-05-06 08:03 45.48351 8.77376 3352 ft 193 kts 351°
2026-05-06 08:03 45.49678 8.77012 3099 ft 192 kts 351°
2026-05-06 08:03 45.50981 8.76656 2849 ft 193 kts 351°
2026-05-06 08:04 45.52293 8.76296 2592 ft 187 kts 351°
2026-05-06 08:04 45.53547 8.75950 2345 ft 177 kts 351°
2026-05-06 08:04 45.54725 8.75627 2118 ft 166 kts 351°
2026-05-06 08:04 45.55809 8.75330 1903 ft 156 kts 352°
2026-05-06 08:05 45.56867 8.75040 1694 ft 152 kts 352°
2026-05-06 08:05 45.57906 8.74755 1484 ft 153 kts 352°
2026-05-06 08:05 45.58949 8.74469 1279 ft 149 kts 352°
2026-05-06 08:05 45.59962 8.74190 1063 ft 147 kts 352°
2026-05-06 08:06 45.60964 8.73913 873 ft 143 kts 351°
2026-05-06 08:06 45.61936 8.73644 712 ft 135 kts 351°
2026-05-06 08:06 45.62722 8.73440 725 ft 92 kts 348°
2026-05-06 08:06 45.63252 8.73289 736 ft 65 kts 349°
2026-05-06 08:07 45.63571 8.73195 744 ft 36 kts 348°
2026-05-06 08:07 45.63745 8.73031 751 ft 28 kts 309°
2026-05-06 08:07 45.63855 8.72834 754 ft 15 kts 307°
2026-05-06 08:07 45.63892 8.72762 756 ft 0 kts 307°
2026-05-06 08:09 45.63894 8.72757 756 ft 2 kts 307°
2026-05-06 08:09 45.63911 8.72725 757 ft 3 kts 306°
2026-05-06 08:09 45.63927 8.72695 758 ft 4 kts 306°
2026-05-06 08:10 45.63943 8.72662 759 ft 3 kts 304°
2026-05-06 08:10 45.63956 8.72622 759 ft 6 kts 284°
2026-05-06 08:10 45.63958 8.72552 759 ft 7 kts 267°
2026-05-06 08:10 45.63952 8.72481 759 ft 6 kts 261°
2026-05-06 08:11 45.63945 8.72422 760 ft 5 kts 261°
2026-05-06 08:11 45.63937 8.72359 761 ft 9 kts 259°
2026-05-06 08:11 45.63924 8.72268 760 ft 9 kts 259°
2026-05-06 08:11 45.63912 8.72181 761 ft 8 kts 259°
2026-05-06 08:12 45.63905 8.72098 763 ft 9 kts 266°
2026-05-06 08:12 45.63901 8.72005 764 ft 8 kts 267°
2026-05-06 08:12 45.63898 8.71925 766 ft 7 kts 267°
2026-05-06 08:12 45.63895 8.71858 767 ft 6 kts 264°
2026-05-06 08:13 45.63859 8.71811 767 ft 8 kts 185°
2026-05-06 08:13 45.63782 8.71821 765 ft 12 kts 164°
2026-05-06 08:13 45.63697 8.71853 763 ft 13 kts 168°
2026-05-06 08:13 45.63603 8.71881 761 ft 14 kts 168°
2026-05-06 08:14 45.63501 8.71907 758 ft 15 kts 171°
2026-05-06 08:14 45.63398 8.71930 758 ft 14 kts 170°
2026-05-06 08:14 45.63297 8.71959 756 ft 15 kts 168°
2026-05-06 08:14 45.63193 8.71991 754 ft 15 kts 167°
2026-05-06 08:15 45.63086 8.72026 751 ft 16 kts 167°
2026-05-06 08:15 45.62974 8.72057 748 ft 16 kts 171°
2026-05-06 08:15 45.62855 8.72086 745 ft 17 kts 170°
2026-05-06 08:15 45.62736 8.72118 743 ft 17 kts 169°
2026-05-06 08:16 45.62614 8.72152 740 ft 17 kts 169°
2026-05-06 08:16 45.62495 8.72185 740 ft 16 kts 170°
2026-05-06 08:16 45.62383 8.72216 739 ft 15 kts 169°
2026-05-06 08:16 45.62275 8.72247 737 ft 16 kts 168°
2026-05-06 08:17 45.62162 8.72282 735 ft 16 kts 167°
2026-05-06 08:17 45.62044 8.72313 732 ft 17 kts 170°
2026-05-06 08:17 45.61923 8.72344 727 ft 18 kts 169°
2026-05-06 08:17 45.61787 8.72381 722 ft 20 kts 169°
2026-05-06 08:18 45.61650 8.72420 719 ft 20 kts 169°
2026-05-06 08:18 45.61527 8.72453 715 ft 17 kts 169°
2026-05-06 08:18 45.61429 8.72458 712 ft 12 kts 216°
2026-05-06 08:18 45.61397 8.72349 713 ft 11 kts 257°
2026-05-06 08:19 45.61382 8.72248 714 ft 9 kts 256°
2026-05-06 08:19 45.61336 8.72200 713 ft 9 kts 179°
2026-05-06 08:19 45.61259 8.72212 710 ft 12 kts 171°
2026-05-06 08:19 45.61166 8.72242 706 ft 14 kts 168°
2026-05-06 08:20 45.61060 8.72272 703 ft 15 kts 169°
2026-05-06 08:20 45.60947 8.72302 700 ft 16 kts 169°
2026-05-06 08:20 45.60832 8.72336 698 ft 16 kts 168°
2026-05-06 08:20 45.60719 8.72363 698 ft 15 kts 170°
2026-05-06 08:21 45.60645 8.72340 698 ft 10 kts 232°
2026-05-06 08:21 45.60650 8.72266 698 ft 7 kts 322°
2026-05-06 08:21 45.60701 8.72246 698 ft 7 kts 348°
2026-05-06 08:21 45.60753 8.72232 698 ft 7 kts 349°
2026-05-06 08:22 45.60783 8.72200 698 ft 5 kts 286°
2026-05-06 08:22 45.60780 8.72146 698 ft 5 kts 261°
2026-05-06 08:22 45.60775 8.72105 699 ft 3 kts 259°
2026-05-06 08:22 45.60773 8.72094 699 ft 0 kts 259°